Wind_Speed
18 18 18 17 17 17 16 15 14 14 13 13 12 12 11 11 11 11 11 10 10 9 9 8 8 7 7 7 7 7 6 5 5 4 4 4 5 4 3 3 3 2 2
20 20 19 19 19 18 17 17 16 15 15 14 14 13 13 13 13 13 12 12 11 11 11 10 9 9 8 8 8 8 7 6 6 6 5 5 5 5 5 4 3 3 3
22 21 21 20 20 20 19 18 18 17 16 16 15 15 14 14 14 14 14 13 13 13 12 12 11 10 10 9 9 8 8 7 7 6 6 5 5 5 5 5 4 5 4
23 23 22 22 22 21 21 20 19 19 18 18 17 17 15 15 14 14 15 14 14 14 14 13 13 12 11 11 10 9 9 8 8 7 7 7 7 7 6 5 5 5 5
25 24 24 24 23 22 22 22 21 21 20 20 19 19 17 16 16 15 15 15 15 15 15 15 14 14 13 12 11 11 10 10 9 9 9 9 8 8 8 7 7 7 6
26 26 25 26 25 25 24 24 23 22 22 22 21 21 20 18 17 17 17 17 17 16 16 16 16 15 15 14 13 12 12 11 11 11 11 11 10 10 10 8 8 8 8
28 27 27 27 27 26 26 26 25 24 24 23 23 23 22 20 20 19 19 19 18 18 17 17 17 17 16 16 15 15 14 13 13 12 12 12 12 11 11 11 10 10 9
29 29 29 29 29 28 27 27 27 26 26 26 25 24 23 22 22 21 21 21 20 20 20 19 19 19 18 18 17 17 16 15 15 15 14 14 14 13 13 13 12 11 11
31 30 30 30 30 30 29 29 29 28 28 27 27 26 26 25 24 23 23 22 22 22 22 21 21 20 20 19 19 19 18 18 17 17 17 16 16 15 15 15 15 14 13
32 32 32 31 31 31 31 31 30 30 29 28 28 28 28 27 26 25 24 24 24 24 24 23 23 22 21 21 20 20 20 20 19 18 18 18 17 17 17 17 16 16 15
33 33 33 33 33 33 32 32 32 31 30 29 28 28 29 29 28 27 26 26 26 25 25 25 24 24 24 23 23 22 22 22 21 21 20 20 19 19 19 18 17 17 17
35 34 34 34 34 34 34 33 33 32 31 30 30 29 29 30 30 29 28 28 27 27 27 27 26 26 26 26 25 24 24 24 23 23 23 22 22 21 21 20 19 19 18
36 36 36 36 36 35 35 35 34 33 33 32 31 31 31 31 31 30 30 29 29 29 29 29 29 28 28 28 28 27 27 26 26 25 24 24 24 23 22 22 21 20 20
36 36 37 37 37 37 37 36 36 35 34 33 33 32 32 33 32 32 31 31 31 31 31 31 31 30 30 30 30 30 29 28 28 27 26 26 25 24 24 24 23 23 22
37 38 38 38 38 38 38 38 37 36 36 35 34 34 34 34 34 33 32 33 33 33 32 32 32 31 31 31 31 32 31 30 30 30 29 28 27 26 26 26 25 25 25
38 38 39 39 39 39 39 39 39 38 38 37 36 35 35 36 35 35 34 34 34 34 34 34 34 33 32 33 33 33 32 32 32 31 30 30 29 28 28 27 27 26 26
40 40 40 41 40 40 40 40 40 40 39 38 37 36 37 37 37 37 36 36 35 35 35 35 35 35 35 35 35 35 34 34 33 33 32 32 31 30 30 30 29 28 27
41 41 41 42 42 42 41 41 41 41 40 39 39 38 38 38 39 39 38 38 37 36 36 36 36 36 37 37 37 37 36 36 36 35 35 34 33 32 32 32 31 31 30
42 42 43 43 44 44 43 43 43 42 42 42 41 40 40 41 41 40 40 40 40 39 38 38 38 38 38 38 38 39 39 39 38 38 36 36 35 35 34 34 34 33 33
43 43 44 45 45 45 45 45 45 45 45 45 44 42 42 43 43 43 43 42 42 41 40 40 40 40 40 40 40 40 41 40 39 39 38 38 37 37 37 37 36 35 34
44 45 45 46 46 46 47 47 47 46 46 46 46 45 45 45 45 45 45 44 44 43 43 43 42 42 42 42 42 42 43 42 41 40 40 40 40 39 39 38 37 37 37
44 45 46 47 47 47 48 48 48 47 47 47 47 47 46 46 46 47 47 47 46 46 46 46 45 44 44 43 43 43 43 43 43 42 42 42 42 42 42 41 40 40 39
43 44 45 46 46 47 48 48 48 48 47 47 48 48 47 47 48 48 48 47 47 47 46 47 46 45 45 45 44 44 44 43 43 43 43 43 42 42 42 42 42 42 42
42 43 44 45 45 46 47 48 48 48 48 48 48 49 48 48 49 49 49 48 49 49 48 47 47 46 46 46 46 45 44 44 44 44 44 44 44 43 43 43 43 44 44
40 41 43 44 45 46 47 48 49 49 49 48 49 49 49 49 49 49 50 49 50 51 50 49 49 48 48 48 47 47 46 46 46 45 45 46 46 45 45 45 45 45 45
39 40 41 43 44 46 47 48 49 49 49 50 49 49 50 50 49 49 50 51 50 50 50 50 50 51 50 50 49 49 48 48 48 48 48 47 47 47 46 45 46 46 46
Wind_Direction
232 232 233 234 235 236 239 239 239 240 240 240 242 242 243 243 242 241 241 241 240 239 239 242 248 253 256 259 262 266 267 274 280 284 292 298 298 289 278 269 262 255 255
235 235 236 237 238 238 241 242 242 242 242 242 243 243 244 244 243 241 242 242 242 241 241 244 248 251 256 261 260 262 265 270 275 278 281 284 282 274 273 270 264 255 257
237 237 237 238 240 240 242 243 244 244 243 244 243 243 242 243 243 242 242 243 243 243 243 243 246 250 253 256 258 260 262 263 266 269 271 272 271 279 270 269 268 266 266
240 240 240 241 242 242 242 243 244 245 245 244 243 243 243 241 242 243 242 244 246 247 246 244 245 247 248 251 255 259 260 259 260 261 262 267 273 277 268 268 275 272 270
244 244 243 243 243 244 243 243 246 246 245 245 245 245 243 242 242 244 246 247 249 249 248 246 245 247 248 249 250 255 259 258 259 260 259 262 268 271 269 267 267 271 273
245 245 245 245 245 245 244 244 245 245 244 246 247 247 246 243 242 244 247 247 249 250 249 248 247 248 250 250 250 251 256 257 256 258 260 260 263 267 270 267 261 262 268
245 245 246 246 246 246 245 245 245 245 245 247 248 248 247 244 243 244 245 247 249 249 251 250 250 250 250 251 251 252 254 256 257 258 259 258 260 263 266 265 263 263 263
245 246 246 245 246 246 246 245 246 246 246 247 248 248 247 246 246 245 245 247 249 251 251 251 250 250 251 252 253 253 254 256 258 258 258 259 259 260 263 262 263 264 261
245 245 245 245 245 245 245 245 246 246 246 247 248 248 247 246 246 245 245 247 249 249 249 250 251 251 251 253 253 253 254 255 257 256 257 259 260 259 261 263 262 264 261
247 246 246 247 246 246 246 246 246 246 246 247 248 248 246 245 245 245 245 246 248 249 250 250 250 251 251 252 253 254 254 254 254 255 256 258 260 260 261 262 263 263 264
247 247 247 248 247 247 248 249 248 248 248 247 248 248 246 245 244 244 245 246 247 248 250 251 250 251 252 252 253 254 254 254 254 253 255 258 260 261 262 262 263 263 264
247 246 246 246 247 248 248 249 249 249 249 248 248 249 247 245 245 245 246 246 247 249 250 251 250 251 252 252 253 254 254 254 254 254 254 256 258 260 261 262 263 263 264
247 245 245 246 247 247 248 249 249 248 249 250 250 249 247 247 247 245 247 248 249 250 251 252 251 252 252 252 253 254 254 254 254 253 254 255 257 259 259 260 262 263 263
246 246 245 246 246 247 247 248 248 248 248 249 250 249 247 247 247 246 247 249 251 251 252 254 254 254 253 253 253 254 253 253 253 254 253 255 256 257 258 259 260 261 263
247 247 246 247 247 248 247 247 248 248 248 248 249 249 248 247 247 247 249 250 251 252 253 254 255 255 255 255 254 253 252 252 253 254 254 255 256 257 257 259 259 260 262
246 247 247 248 248 247 248 247 247 248 248 248 248 249 248 248 249 250 250 250 252 252 254 254 254 254 255 255 255 253 252 252 253 254 253 254 255 256 257 258 259 259 261
247 247 248 248 247 247 247 247 246 246 247 248 248 249 249 249 249 251 251 251 253 254 254 254 254 254 255 255 254 252 251 251 251 251 252 253 254 255 256 257 258 258 260
248 247 248 248 248 248 247 247 247 247 247 247 248 248 249 249 249 250 251 251 253 254 255 254 255 256 256 255 254 253 252 251 252 251 252 253 253 255 255 256 258 258 260
248 248 248 248 248 248 248 248 247 248 248 248 248 249 249 248 250 250 250 251 253 254 255 255 254 256 256 256 254 253 251 250 252 252 252 253 255 255 255 256 257 259 260
248 247 247 248 248 248 248 248 248 248 248 248 249 249 250 249 249 250 251 252 253 254 255 256 255 255 255 254 254 253 252 251 251 251 252 254 255 255 255 256 258 259 260
249 248 248 247 248 248 248 248 248 248 249 249 249 250 250 250 249 249 250 252 253 254 255 256 256 256 256 255 255 253 252 251 251 252 253 254 255 255 256 257 258 259 260
250 250 249 248 247 248 248 248 249 249 249 249 250 249 250 250 249 249 251 252 252 254 256 257 256 256 256 256 255 254 252 252 252 253 254 255 256 256 256 256 258 259 261
252 251 250 249 248 248 248 248 248 249 249 249 250 250 251 251 250 250 252 253 253 254 255 256 256 256 255 255 255 254 252 252 253 253 255 255 255 257 257 257 258 258 259
253 252 251 250 248 248 248 248 248 249 249 249 250 251 252 253 252 252 252 254 254 254 255 255 254 256 255 254 253 253 252 253 254 254 254 254 255 256 257 258 259 259 260
253 253 252 251 249 248 248 248 248 249 249 250 251 251 252 253 253 253 253 253 253 254 255 255 254 255 254 253 253 253 253 253 253 253 254 254 255 256 258 259 260 260 261
255 254 253 251 250 249 249 249 250 250 250 251 251 251 252 253 253 253 253 252 253 255 256 255 254 255 253 252 252 253 253 253 253 253 254 255 256 257 258 260 260 260 260
Height
5826 5827 5828 5830 5831 5833 5834 5835 5837 5838 5839 5841 5842 5843 5844 5846 5847 5848 5849 5851 5852 5853 5854 5855 5856 5857 5858 5858 5859 5860 5860 5861 5861 5861 5861 5861 5861 5861 5861 5861 5862 5862 5862
5823 5824 5826 5827 5828 5830 5831 5833 5834 5836 5837 5838 5840 5841 5842 5844 5845 5846 5848 5849 5850 5851 5852 5854 5854 5855 5856 5857 5858 5859 5859 5860 5860 5860 5860 5861 5861 5861 5861 5861 5861 5861 5862
5819 5821 5822 5824 5825 5827 5828 5830 5831 5832 5834 5836 5837 5838 5840 5841 5842 5844 5845 5846 5848 5849 5850 5851 5852 5853 5854 5855 5856 5857 5858 5858 5859 5859 5859 5860 5860 5860 5860 5860 5860 5860 5861
5815 5817 5819 5820 5822 5823 5825 5826 5828 5829 5831 5832 5834 5835 5837 5838 5839 5841 5842 5844 5845 5846 5848 5849 5850 5851 5852 5853 5854 5855 5856 5857 5857 5858 5858 5858 5859 5859 5859 5859 5859 5859 5860
5811 5813 5815 5816 5818 5819 5821 5822 5824 5826 5827 5829 5830 5832 5833 5835 5836 5838 5840 5841 5842 5844 5845 5846 5848 5849 5850 5851 5852 5853 5854 5855 5856 5857 5857 5857 5857 5858 5858 5858 5858 5858 5858
5806 5808 5810 5812 5813 5815 5817 5818 5820 5822 5823 5825 5826 5828 5829 5831 5833 5835 5836 5838 5839 5841 5842 5843 5845 5846 5847 5848 5850 5851 5852 5853 5854 5855 5855 5856 5856 5856 5856 5857 5856 5857 5857
5801 5803 5805 5807 5809 5810 5812 5814 5815 5817 5819 5820 5822 5824 5826 5827 5829 5831 5832 5834 5836 5837 5839 5840 5842 5843 5844 5846 5847 5848 5849 5850 5851 5852 5853 5853 5854 5854 5854 5855 5855 5854 5855
5796 5798 5800 5801 5803 5805 5807 5809 5810 5812 5814 5816 5817 5819 5821 5823 5825 5827 5829 5830 5832 5833 5835 5836 5838 5839 5841 5842 5844 5845 5846 5848 5849 5850 5850 5851 5851 5851 5852 5853 5853 5852 5852
5789 5792 5794 5796 5798 5800 5801 5803 5805 5807 5809 5810 5812 5814 5816 5818 5820 5822 5824 5826 5828 5829 5831 5833 5834 5835 5837 5839 5840 5841 5843 5844 5845 5846 5847 5848 5848 5849 5849 5850 5850 5850 5850
5783 5786 5788 5790 5792 5794 5796 5797 5799 5801 5803 5805 5807 5809 5811 5813 5815 5817 5819 5821 5823 5825 5827 5828 5830 5831 5833 5835 5836 5837 5839 5840 5841 5843 5844 5845 5845 5846 5846 5847 5847 5847 5848
5777 5779 5781 5783 5785 5788 5790 5791 5793 5795 5797 5799 5801 5803 5805 5808 5810 5812 5814 5816 5818 5820 5822 5823 5825 5827 5828 5830 5832 5833 5835 5836 5837 5839 5840 5841 5841 5842 5843 5843 5844 5844 5845
5770 5772 5774 5776 5779 5781 5783 5785 5787 5789 5791 5793 5795 5797 5799 5802 5804 5806 5808 5810 5812 5814 5816 5818 5819 5821 5823 5825 5827 5828 5830 5831 5833 5834 5835 5836 5837 5838 5839 5840 5840 5841 5841
5762 5764 5767 5769 5771 5774 5776 5778 5780 5782 5784 5787 5789 5791 5793 5795 5798 5800 5802 5804 5806 5808 5810 5812 5814 5815 5817 5819 5821 5822 5824 5826 5827 5829 5830 5831 5832 5833 5834 5835 5836 5836 5837
5754 5756 5759 5761 5764 5766 5769 5771 5773 5775 5777 5780 5782 5784 5786 5788 5791 5793 5795 5797 5800 5802 5804 5806 5807 5809 5811 5813 5814 5816 5818 5820 5821 5823 5824 5826 5827 5828 5829 5830 5831 5832 5832
5745 5748 5751 5753 5756 5758 5761 5763 5765 5767 5770 5772 5774 5776 5779 5781 5784 5786 5788 5790 5792 5795 5797 5799 5801 5802 5804 5806 5807 5809 5811 5813 5815 5817 5818 5820 5821 5823 5824 5825 5826 5827 5827
5736 5738 5741 5744 5747 5749 5752 5755 5757 5759 5762 5764 5766 5769 5771 5774 5776 5779 5781 5783 5785 5787 5789 5791 5793 5795 5797 5798 5800 5802 5804 5806 5808 5810 5812 5813 5815 5816 5818 5819 5820 5821 5822
5726 5729 5732 5734 5737 5740 5743 5746 5748 5750 5753 5756 5758 5761 5763 5766 5769 5771 5773 5775 5777 5779 5781 5783 5785 5787 5789 5790 5792 5794 5796 5798 5800 5803 5805 5806 5808 5810 5811 5812 5813 5814 5815
5716 5719 5722 5724 5727 5730 5733 5736 5739 5741 5744 5747 5749 5752 5755 5757 5760 5763 5765 5767 5769 5771 5773 5775 5777 5778 5780 5781 5783 5785 5787 5790 5792 5795 5797 5799 5801 5802 5804 5805 5807 5808 5809
5705 5708 5711 5714 5717 5720 5722 5725 5728 5731 5734 5737 5740 5743 5745 5748 5751 5754 5756 5758 5760 5762 5764 5766 5768 5769 5771 5772 5774 5776 5778 5781 5784 5786 5788 5791 5793 5795 5796 5798 5799 5800 5801
5694 5697 5700 5703 5706 5709 5712 5714 5717 5720 5723 5726 5730 5733 5736 5738 5741 5744 5746 5749 5751 5753 5755 5757 5758 5760 5761 5762 5764 5767 5769 5772 5774 5777 5779 5782 5784 5786 5788 5790 5791 5792 5793
5683 5686 5689 5692 5695 5697 5700 5703 5706 5709 5712 5715 5719 5722 5725 5727 5730 5733 5736 5738 5741 5743 5745 5747 5748 5750 5751 5752 5754 5757 5760 5762 5765 5768 5770 5772 5775 5776 5779 5780 5782 5783 5785
5672 5674 5677 5680 5683 5686 5689 5692 5695 5698 5701 5704 5707 5711 5713 5716 5719 5722 5725 5727 5730 5732 5734 5736 5738 5739 5741 5742 5744 5747 5750 5753 5756 5758 5760 5763 5765 5767 5769 5771 5772 5774 5775
5661 5663 5666 5668 5671 5674 5677 5680 5683 5686 5690 5693 5696 5699 5702 5704 5707 5711 5713 5715 5718 5721 5723 5725 5727 5728 5730 5732 5734 5736 5739 5742 5745 5748 5750 5753 5755 5756 5758 5760 5762 5764 5765
5651 5653 5655 5657 5660 5663 5665 5668 5672 5675 5678 5682 5685 5687 5690 5693 5695 5698 5701 5704 5707 5709 5711 5713 5715 5717 5719 5721 5723 5726 5728 5731 5734 5737 5740 5742 5744 5746 5748 5749 5751 5753 5754
5640 5642 5644 5646 5649 5651 5654 5657 5660 5663 5667 5670 5672 5675 5678 5681 5683 5686 5689 5692 5695 5697 5699 5701 5703 5705 5707 5710 5712 5715 5717 5720 5722 5725 5729 5731 5733 5735 5737 5738 5740 5742 5743
5630 5632 5634 5636 5638 5641 5643 5645 5649 5652 5655 5658 5661 5663 5666 5669 5671 5674 5677 5679 5682 5684 5686 5688 5691 5693 5695 5698 5700 5703 5706 5708 5711 5713 5716 5719 5721 5724 5725 5726 5728 5730 5731